Regional Weather Roundup
Issued by NWS Boston, MA

Current Version | Previous Version | Text Only | Print | Product List | Glossary On
Versions: 1 2 3 4 5 6 7 8 9 10 11 12 13 14 15 16 17 18 19 20 21 22 23 24 25 26 27 28 29 30 31 32 33 34 35 36 37 38 39 40 41 42 43 44 45 46 47 48 49 50
000
ASUS41 KBOX 011010
RWRBOX

REGIONAL WEATHER ROUNDUP
NATIONAL WEATHER SERVICE TAUNTON MA
600 AM EDT SUN MAY 01 2016

NOTE:  "FAIR" INDICATES FEW OR NO CLOUDS BELOW 12,000 FEET WITH NO
SIGNIFICANT WEATHER AND/OR OBSTRUCTIONS TO VISIBILITY.  THE FOLLOWING
OBSERVATION LOCATIONS DO NOT REPORT PRESENT WEATHER...PROVINCETOWN...
SMITHFIELD...BLOCK ISLAND...KEENE...AND OXFORD.

MAZALL-011100-
EASTERN MASSACHUSETTS

CITY           SKY/WX    TMP DP  RH WIND       PRES   REMARKS
BOSTON         CLOUDY    44  35  70 S5        30.24S
BEVERLY        CLOUDY    44  32  62 CALM      30.23R
LAWRENCE       CLOUDY    45  32  60 VRB3      30.23F
BEDFORD        PTCLDY    43  34  70 S3        30.22R
BLUE HILL        N/A     41  32  70 S7        30.21R
NORWOOD        CLOUDY    41  36  82 CALM      30.23S
MARSHFIELD     CLOUDY    37  36  93 W3        30.26R
PLYMOUTH       CLOUDY    39  36  89 CALM      30.25R
TAUNTON        CLOUDY    39  36  89 CALM      30.24R
NEW BEDFORD    CLOUDY    38  35  89 CALM      30.25R
$$

MAZALL-011100-
CAPE COD AND THE ISLANDS

CITY           SKY/WX    TMP DP  RH WIND       PRES   REMARKS
FALMOUTH       CLOUDY    36  34  93 CALM      30.25R
HYANNIS        CLOUDY    38  34  85 CALM      30.24R
CHATHAM        CLOUDY    39  37  92 CALM      30.27R
PROVINCETOWN   CLOUDY    37  34  89 CALM      30.25S
NANTUCKET      CLOUDY    44  39  82 E6        30.25R
MARTHAS VNYRD  CLOUDY    35  33  92 CALM      30.25R
$$

MAZALL-011100-
CENTRAL AND WESTERN MASSACHUSETTS

CITY           SKY/WX    TMP DP  RH WIND       PRES   REMARKS
WORCESTER      CLOUDY    43  22  43 W10       30.20R
FITCHBURG      MOCLDY    46  27  47 CALM      30.22R
ORANGE         CLOUDY    44  34  67 CALM      30.21R
SPRINGFIELD    CLOUDY    44  35  71 S3        30.21R
WESTFIELD      CLOUDY    44  35  70 S3        30.22R
NORTH ADAMS    CLOUDY    49  39  68 SE6       30.18S
PITTSFIELD     CLOUDY    44  38  79 CALM      30.17S
$$

RIZALL-011100-
RHODE ISLAND

CITY           SKY/WX    TMP DP  RH WIND       PRES   REMARKS
PROVIDENCE     MOCLDY    43  37  79 CALM      30.24R
NEWPORT        PTCLDY    43  38  82 SE3       30.24R
BLOCK ISLAND   CLOUDY    44  39  82 E3        30.25R
SMITHFIELD       N/A     39  34  81 CALM      30.22S
WESTERLY       CLOUDY    42  36  79 CALM      30.25R
$$

CTZALL-011100-
CONNECTICUT

CITY           SKY/WX    TMP DP  RH WIND       PRES   REMARKS
BRADLEY INTL   CLOUDY    45  36  70 S5        30.22R
HARTFORD       CLOUDY    48  37  65 CALM      30.23R
BRIDGEPORT     CLOUDY    49  40  71 SE5       30.22S
DANBURY        CLOUDY    46  37  71 CALM      30.22R
GROTON         CLOUDY    45  43  93 CALM      30.24R
NEW HAVEN      CLOUDY    47  39  74 E3        30.23R
CHESTER        FAIR      43  37  81 CALM      30.22S
MERIDEN        CLOUDY    46  37  71 CALM      30.23R
WILLIMANTIC    CLOUDY    44  36  73 CALM      30.24R
OXFORD         CLOUDY    45  36  70 CALM      30.23R
$$

MEZ002-015-021-024-NHZ003-005-008-011-012-014-VTZ005-008-011100-
NORTHERN NEW ENGLAND

CITY           SKY/WX    TMP DP  RH WIND       PRES   REMARKS
PORTLAND ME    CLOUDY    39  35  86 CALM      30.23S
BANGOR ME      PTCLDY    37  33  85 CALM      30.25R
CONCORD NH     CLOUDY    40  33  76 CALM      30.21S
MANCHESTER NH  CLOUDY    45  30  55 S3        30.20S
NASHUA NH      CLOUDY    45  31  58 CALM      30.22S
PORTSMOUTH NH  CLOUDY    43  32  66 S3        30.21R
JAFFREY NH     CLOUDY    42  33  70 CALM      30.20R
KEENE NH       CLOUDY    45  36  70 S3        30.22R
BURLINGTON VT  MOCLDY    44  31  60 CALM      30.17R
MT. WASHINGTON MOCLDY    32  19  59 W16         N/A  WCI  21
$$

NYZ052-076-011100-
EASTERN NEW YORK

CITY           SKY/WX    TMP DP  RH WIND       PRES   REMARKS
ALBANY         CLOUDY    51  35  54 S6        30.17S
NEW YORK CITY  CLOUDY    50  36  58 E5        30.19S
$$

ANZALL-011100-
MARINE OBSERVATIONS

STATION/POSITION TIME  TEMP    WIND        PRES    VSBY  WAVE
                       AIR SEA DIR/SP/G                  HT/PER
                 (UTC) (F)     (DEG/KT/KT) (MB)    (MI)  (FT/S)
BOSTON BUOY      0950   45 46  180/  6/  8 1023.0R         2/ 8
BUZZARDS BAY     0900   45        CALM     1024.5R
NANTUCKET SOUND  0950   47 49   70/  4/  4 1024.2R         1/ 7
MASS BAY-STELLWA 0904   45 46                N/A    1 7/8  3/ 6
ISLE OF SHOALS   0900   46     210/ 11/ 12 1022.7F
S OF BLOCK IS    NOT AVBL
$$

......................KEY.........................
  SKY/WX - SKY CONDITION/PRESENT WEATHER
  TMP    - TEMPERATURE IN FAHRENHEIT
  DWPT   - DEWPOINT IN FAHRENHEIT
  RH     - RELATIVE HUMIDITY IN PERCENT
  WIND   - DIRECTION AND SPEED IN MPH
  PRES   - MEAN SEA LEVEL PRESSURE IN INCHES OF HG
  WCI    - WIND CHILL INDEX
  VSB    - VISIBILITY IN MILES
  HX     - HEAT INDEX
  TC     - TEMPERATURE IN CELSIUS
  VRB    - VARIABLE WIND DIRECTION
  N/A    - NOT AVAILABLE



USA.gov is the U.S. government's official web portal to all federal, state and local government web resources and services.